HR2RCH-13 Weather Reports


Display with metric or nautical units.
time (UTC)temp
F
wind
direction
speed
MPH
gust
MPH
rain 1hr
in
rain 24hr
in
rain mn
in
humidity
%
barometer
mb
20260502190046 0 123 4.0 9.0 0.00 0.00 0.00 1004.8
20260502184550 0 195 3.0 8.0 0.00 0.00 0.00 1005.1
20260502183047 0 274 2.0 7.0 0.00 0.00 0.00 1005.3
20260502181553 0 258 2.0 6.0 0.00 0.00 0.00 1005.5
20260502163101 0 248 3.0 10.0 0.00 0.00 0.00 1006.9
20260502161544 0 263 2.0 8.0 0.00 0.00 0.00 1007.2
20260502151550 0 274 2.0 10.0 0.00 0.00 0.00 1008.0
20260502123055 0 324 4.0 10.0 0.00 0.00 0.00 1007.2
20260502121545 0 10 4.0 14.0 0.00 0.00 0.00 1007.1
20260502114548 0 40 3.0 8.0 0.00 0.00 0.00 1006.7
20260502113050 0 354 4.0 8.0 0.00 0.00 0.00 1006.7
20260502111550 0 295 4.0 7.0 0.00 0.00 0.00 1006.6
20260502110047 0 33 4.0 9.0 0.00 0.00 0.00 1006.3
20260502104549 0 41 4.0 10.0 0.00 0.00 0.00 1006.2
20260502103045 0 335 3.0 8.0 0.00 0.00 0.00 1006.1
20260502101548 0 38 4.0 9.0 0.00 0.00 0.00 1006.0
20260502070048 0 0 0.0 1.0 0.00 0.00 0.00 1006.1
20260502064548 0 0 0.0 2.0 0.00 0.00 0.00 1006.1
20260502063100 0 74 0.0 2.0 0.00 0.00 0.00 1006.4
20260502061549 0 0 0.0 2.0 0.00 0.00 0.00 1006.4
20260502060049 0 63 1.0 2.0 0.00 0.00 0.00 1006.4
20260502054547 0 0 0.0 2.0 0.00 0.00 0.00 1006.4
20260502053056 0 71 2.0 3.0 0.00 0.00 0.00 1006.5
20260502051547 0 126 0.0 2.0 0.00 0.00 0.00 1006.6
20260502050051 0 0 0.0 2.0 0.00 0.00 0.00 1006.6
20260502044547 0 86 1.0 3.0 0.00 0.00 0.00 1006.8
20260502043056 0 0 1.0 2.0 0.00 0.00 0.00 1006.9
20260502041553 0 0 0.0 2.0 0.00 0.00 0.00 1006.9
20260502040045 0 0 0.0 2.0 0.00 0.00 0.00 1006.7
20260502034547 0 0 0.0 2.0 0.00 0.00 0.00 1006.6
20260502033047 0 6 1.0 3.0 0.00 0.00 0.00 1006.5
20260502031546 0 70 0.0 2.0 0.00 0.00 0.00 1006.2
20260502030049 0 0 0.0 2.0 0.00 0.00 0.00 1005.9
20260502024546 0 0 0.0 1.0 0.00 0.00 0.00 1005.9
20260502023049 0 0 0.0 4.0 0.00 0.00 0.00 1005.7
20260502021547 0 94 1.0 3.0 0.00 0.00 0.00 1005.7
20260502020053 0 120 2.0 5.0 0.00 0.00 0.00 1005.6
20260502014546 0 112 3.0 5.0 0.00 0.00 0.00 1005.5
20260502013051 0 168 2.0 5.0 0.00 0.00 0.00 1005.3
20260502011550 0 221 2.0 5.0 0.00 0.00 0.00 1005.2
20260502010045 0 156 2.0 10.0 0.00 0.00 0.00 1005.1
20260502004549 0 148 4.0 9.0 0.00 0.00 0.00 1004.9
20260502003044 0 166 3.0 9.0 0.00 0.00 0.00 1004.7
20260502001544 0 161 4.0 9.0 0.00 0.00 0.00 1004.6
20260502000058 0 218 5.0 12.0 0.00 0.00 0.00 1004.3
20260501234551 0 190 3.0 7.0 0.00 0.00 0.00 1004.1
20260501233052 0 191 7.0 13.0 0.00 0.00 0.00 1003.7
20260501231634 0 218 4.0 13.0 0.00 0.00 0.00 1003.6
20260501224604 0 104 6.0 11.0 0.00 0.00 0.00 1003.2
20260501223052 0 246 6.0 13.0 0.00 0.00 0.00 1002.9
20260501221604 0 196 5.0 18.0 0.00 0.00 0.00 1002.7
20260501220049 0 151 5.0 12.0 0.00 0.00 0.00 1002.7
20260501214544 0 198 5.0 13.0 0.00 0.00 0.00 1002.5
20260501213050 0 193 4.0 9.0 0.00 0.00 0.00 1002.6
20260501211604 0 204 6.0 13.0 0.00 0.00 0.00 1002.5
20260501210051 0 184 7.0 14.0 0.00 0.00 0.00 1002.5
20260501204549 0 173 3.0 11.0 0.00 0.00 0.00 1002.5
20260501203048 0 253 4.0 10.0 0.00 0.00 0.00 1002.8
20260501201549 0 179 4.0 9.0 0.00 0.00 0.00 1003.0
20260501200226 0 278 5.0 11.0 0.00 0.00 0.00 1003.2
20260501200048 0 278 5.0 11.0 0.00 0.00 0.00 1003.2
20260501194548 0 272 4.0 7.0 0.00 0.00 0.00 1003.4
20260501193046 0 136 3.0 8.0 0.00 0.00 0.00 1003.7
20260501191545 0 264 1.0 9.0 0.00 0.00 0.00 1003.9